Location: Proctor
(47.8934°N, 114.3048°W)
Time: 01:03:57
(UTC+00:00)

CAS-6 - Pass Details

Date: 26 June 2022
Orbit: 613 x 634 km, 97.9° (Epoch: 15 August)

Event Time Altitude Azimuth Distance (km) Brightness Sun altitude
Exits shadow 07:07:41 11° 237° (WSW) 1,934 ? -18.4°
Maximum altitude 07:09:57 15° 270° (W) 1,679 ? -18.4°
Drops below altitude 10° 07:12:33 10° 307° (NW) 2,011 ? -18.5°
Sets 07:15:36 0° 330° (NNW) 2,920 ? -18.5°
